User: anonymous   Login
Location: Theydon Bois
(51.6750°N, 0.1050°E)
Time: 13:19:27
(UTC+00:00)
Language:

NOAA 11 - Orbit

View from above orbital plane
View from above orbital plane
View from above satellite
View from above satellite

Ground track
Ground track

The orbit data is extracted from the following two-line orbital elements,

1 19531U 88089A   17347.77188762 -.00000011 +00000-0 +15621-4 0  9992
2 19531 098.5276 038.6601 0010272 239.4272 120.5889 14.15218776507909
Epoch (UTC): 13 December 2017 18:31:31
Eccentricity: 0.0010272
inclination: 98.5276°
perigee height: 834 km
apogee height: 849 km
right ascension of ascending node: 38.6601°
argument of perigee: 239.4272°
revolutions per day: 14.15218776
mean anomaly at epoch: 120.5889°
orbit number at epoch: 50790

The dashed part of the orbit path shows where the satellite is in the earth's shadow,  

DLR